Vorticity
13 9 12 11 17 27 8 13 3 7 1 21 20 6 3 6 4 1 5 13 15 18 18 22 36 32 -8 4 8 12 9 5 12 4 -8 28 16 25 34 73 70 67 53 12
12 9 13 13 20 18 10 11 10 25 21 -3 -0 11 6 6 8 7 8 4 5 12 14 13 13 26 45 58 10 -12 -14 12 -8 58 34 -4 17 7 9 4 7 17 20 21
7 12 9 -1 24 18 10 13 15 11 -3 9 4 11 7 5 3 3 6 6 8 8 6 6 9 11 15 18 19 14 36 22 20 19 17 14 17 16 13 12 8 16 11 9
5 12 6 6 12 19 3 15 0 7 7 8 2 7 5 2 4 3 2 -2 3 6 1 5 7 7 10 10 8 7 10 12 8 4 5 6 10 11 13 15 19 20 19 18
2 8 13 0 -1 1 6 15 7 -3 2 7 -2 7 7 6 4 2 5 11 13 15 15 12 10 9 9 8 7 7 6 9 8 8 9 9 10 10 11 12 13 14 16 20
4 4 7 12 3 2 9 13 9 11 11 7 3 7 8 9 9 12 10 12 7 7 5 5 6 6 7 6 6 6 7 7 6 6 6 7 7 7 7 8 6 5 4 5
18 11 9 5 13 10 9 7 11 10 9 21 8 7 7 9 9 5 5 6 6 6 8 9 9 10 9 9 8 7 8 8 8 9 8 8 8 8 8 8 8 6 5 5
14 10 12 6 6 6 8 6 14 13 17 19 13 9 11 12 12 7 5 13 14 7 4 3 4 4 5 5 4 2 2 2 0 0 0 -1 1 1 2 2 2 2 2 3
12 6 14 16 13 6 8 12 18 14 9 8 8 8 7 6 6 11 11 2 2 3 4 5 4 4 3 3 3 1 0 1 2 3 3 2 2 3 6 7 8 10 9 7
16 14 13 25 8 14 3 6 26 7 9 8 6 6 7 11 12 9 3 2 2 3 6 7 6 3 4 5 4 5 6 10 14 21 25 27 29 27 25 18 19 20 15 14
11 18 11 21 22 9 16 12 25 9 3 5 7 9 11 11 9 4 3 2 4 6 8 7 8 9 11 13 15 16 22 19 10 8 8 10 10 9 -1 -0 -2 7 9 10
12 8 7 9 20 17 10 7 12 13 11 11 11 9 13 11 7 3 4 2 1 8 10 13 15 15 11 9 7 8 9 10 8 4 1 3 7 7 7 4 3 2 4 1
18 12 4 5 11 22 15 19 19 18 20 15 12 12 15 6 2 8 4 5 7 12 13 7 6 6 6 7 7 6 6 4 6 8 7 2 1 -1 -0 -1 2 3 3 4
21 21 18 7 3 23 10 11 11 9 11 11 13 9 8 4 9 6 3 2 13 10 5 6 6 7 8 6 6 4 9 8 5 4 4 4 5 4 3 2 2 5 6 5
7 22 22 13 12 4 9 12 15 12 13 13 13 11 5 6 8 4 8 13 6 6 6 6 6 6 3 8 11 8 6 6 5 4 6 4 4 5 4 4 5 5 6 6
4 6 13 24 11 7 12 7 -1 -1 3 2 5 6 4 8 8 9 6 6 8 7 4 4 3 5 4 5 9 7 7 6 6 6 8 10 9 6 5 5 4 8 8 10
8 8 9 9 22 9 11 11 11 17 9 3 7 9 11 10 7 6 8 6 5 4 3 5 5 7 6 5 7 8 9 8 7 8 8 6 4 5 6 9 10 10 15 26
11 13 12 10 9 14 11 13 13 12 8 9 11 10 9 7 7 5 4 4 3 4 2 4 5 6 6 6 6 7 8 6 6 6 5 6 5 8 8 8 11 21 35 36
18 16 20 20 11 10 12 12 11 10 18 13 13 10 8 8 6 4 4 3 2 2 2 4 5 5 5 5 5 7 6 5 5 6 6 7 8 7 8 14 27 36 33 29
13 25 17 23 15 10 11 11 8 8 14 12 9 7 6 5 4 3 3 3 3 3 4 4 4 5 4 3 5 6 4 5 6 7 7 6 6 8 17 30 33 30 25 18
32 28 26 24 15 12 10 9 1 7 14 9 6 4 3 3 2 2 3 2 4 3 3 4 5 4 5 4 6 5 5 5 7 7 7 6 9 20 30 31 26 22 17 14
23 20 19 15 19 16 8 8 4 7 11 9 5 3 2 1 2 2 3 3 3 4 4 5 5 4 3 5 5 6 6 8 7 7 5 11 21 31 29 23 19 15 13 12
15 18 16 18 16 12 8 6 6 10 9 5 4 3 3 2 2 3 4 3 2 3 4 6 5 4 4 6 7 7 8 7 7 6 14 22 30 25 20 16 14 13 11 11
17 11 7 7 11 11 9 8 8 9 7 4 2 3 2 3 4 4 3 2 4 5 6 5 4 4 5 8 8 8 7 6 7 15 23 27 21 15 14 15 15 14 12 12
12 14 17 14 11 9 9 9 8 5 3 3 3 3 4 4 5 5 5 5 6 6 6 5 5 6 10 8 7 7 6 8 17 24 25 18 15 14 14 15 16 15 14 13
6 9 9 10 10 8 6 5 5 4 4 3 4 5 6 7 6 5 5 7 7 7 6 5 7 9 7 7 6 6 11 19 24 22 16 15 15 15 16 17 20 22 19 15
10 7 9 8 8 7 6 5 5 5 6 7 7 7 6 6 5 6 8 7 7 6 6 8 8 7 7 6 7 13 21 24 21 15 15 16 14 14 16 18 20 23 24 22
Height
5620 5619 5618 5616 5615 5613 5612 5613 5612 5612 5611 5610 5608 5605 5603 5600 5597 5593 5589 5585 5582 5578 5576 5574 5572 5573 5577 5579 5582 5585 5589 5593 5598 5602 5607 5611 5613 5614 5616 5617 5615 5616 5619 5622
5614 5614 5613 5612 5610 5609 5609 5608 5608 5607 5607 5606 5605 5603 5602 5600 5598 5594 5592 5589 5586 5583 5581 5578 5577 5576 5577 5577 5582 5585 5588 5588 5595 5596 5599 5603 5599 5604 5607 5606 5607 5608 5610 5612
5609 5608 5607 5609 5606 5606 5606 5605 5604 5604 5604 5604 5603 5602 5600 5599 5598 5596 5594 5591 5588 5585 5583 5581 5581 5580 5578 5578 5579 5580 5580 5584 5589 5592 5594 5596 5597 5599 5599 5598 5599 5601 5602 5603
5604 5603 5603 5604 5603 5602 5603 5603 5602 5602 5602 5602 5601 5601 5599 5598 5597 5596 5594 5591 5589 5586 5585 5583 5582 5581 5579 5579 5579 5581 5583 5584 5587 5588 5589 5590 5591 5593 5593 5592 5591 5591 5592 5592
5600 5600 5600 5600 5600 5600 5600 5600 5599 5599 5600 5599 5599 5599 5598 5597 5596 5594 5592 5591 5589 5587 5586 5585 5584 5583 5583 5582 5582 5581 5582 5582 5584 5586 5588 5588 5588 5589 5588 5587 5585 5584 5583 5583
5596 5596 5594 5595 5596 5596 5596 5596 5596 5596 5596 5596 5596 5596 5596 5595 5594 5593 5591 5590 5588 5587 5586 5586 5585 5584 5583 5582 5581 5581 5582 5583 5583 5584 5583 5583 5584 5584 5583 5581 5580 5580 5578 5576
5589 5591 5588 5589 5590 5591 5592 5594 5591 5592 5592 5592 5592 5593 5593 5593 5592 5591 5591 5590 5589 5588 5587 5586 5585 5583 5582 5581 5580 5580 5579 5580 5580 5579 5578 5577 5577 5576 5574 5573 5572 5570 5569 5567
5583 5583 5583 5584 5585 5586 5586 5586 5586 5587 5588 5588 5588 5589 5589 5590 5589 5589 5589 5589 5589 5588 5587 5586 5584 5583 5582 5581 5580 5579 5579 5578 5577 5575 5574 5572 5570 5568 5566 5564 5562 5559 5557 5555
5578 5577 5576 5576 5578 5579 5579 5580 5581 5582 5583 5584 5585 5586 5586 5586 5587 5587 5587 5587 5587 5586 5585 5584 5583 5581 5580 5579 5578 5576 5574 5573 5571 5569 5566 5564 5561 5559 5556 5554 5552 5549 5547 5544
5570 5571 5570 5570 5571 5573 5574 5575 5575 5577 5579 5580 5581 5582 5583 5583 5584 5584 5584 5584 5583 5582 5582 5580 5578 5576 5575 5572 5571 5568 5566 5564 5562 5559 5556 5553 5551 5549 5546 5543 5539 5536 5532 5528
5565 5565 5565 5565 5565 5567 5568 5569 5570 5571 5573 5575 5577 5578 5579 5580 5581 5581 5581 5581 5579 5578 5577 5575 5573 5571 5569 5566 5563 5561 5559 5557 5554 5551 5548 5545 5543 5539 5536 5533 5529 5525 5520 5515
5561 5561 5560 5560 5561 5562 5563 5564 5565 5567 5568 5570 5572 5574 5576 5577 5577 5577 5577 5575 5574 5573 5571 5569 5567 5565 5564 5562 5560 5557 5554 5551 5547 5544 5541 5537 5533 5528 5525 5520 5514 5508 5503 5498
5555 5555 5556 5557 5556 5557 5558 5559 5560 5562 5563 5565 5567 5570 5571 5572 5573 5573 5571 5570 5569 5568 5567 5565 5564 5562 5559 5557 5554 5550 5546 5542 5539 5535 5530 5526 5520 5515 5509 5502 5496 5492 5484 5477
5550 5550 5551 5552 5553 5553 5554 5555 5557 5558 5560 5562 5564 5566 5567 5568 5568 5567 5566 5566 5565 5564 5562 5560 5558 5555 5552 5549 5546 5543 5538 5534 5529 5524 5519 5513 5507 5500 5492 5485 5478 5471 5462 5453
5547 5546 5546 5547 5549 5550 5550 5552 5553 5555 5557 5558 5560 5561 5563 5562 5562 5562 5561 5561 5560 5559 5556 5554 5552 5549 5546 5542 5539 5534 5529 5523 5517 5511 5505 5498 5490 5483 5475 5467 5458 5449 5441 5429
5544 5543 5543 5543 5544 5546 5548 5549 5550 5552 5553 5554 5555 5556 5557 5557 5557 5557 5556 5555 5554 5553 5550 5548 5545 5542 5538 5533 5528 5522 5516 5509 5502 5496 5489 5481 5473 5465 5456 5446 5435 5425 5414 5403
5539 5539 5539 5539 5540 5541 5543 5544 5546 5547 5548 5549 5550 5551 5552 5552 5552 5552 5551 5550 5548 5546 5543 5541 5537 5533 5528 5522 5516 5510 5503 5496 5488 5481 5473 5464 5454 5444 5434 5423 5412 5400 5386 5373
5533 5533 5533 5534 5535 5536 5538 5539 5540 5541 5543 5544 5545 5546 5546 5547 5547 5545 5545 5543 5541 5539 5536 5532 5527 5522 5516 5510 5503 5496 5488 5480 5472 5463 5453 5443 5433 5422 5411 5398 5385 5370 5356 5342
5526 5526 5526 5528 5530 5532 5533 5535 5536 5538 5538 5540 5540 5541 5541 5541 5541 5540 5539 5537 5534 5530 5526 5522 5516 5510 5503 5496 5489 5481 5472 5463 5453 5444 5433 5423 5412 5399 5386 5372 5358 5344 5332 5322
5520 5519 5520 5521 5524 5527 5529 5531 5532 5533 5534 5535 5536 5536 5537 5536 5536 5534 5532 5528 5525 5521 5516 5510 5504 5497 5490 5482 5473 5464 5455 5445 5435 5424 5413 5401 5388 5375 5362 5348 5336 5325 5315 5307
5514 5514 5514 5517 5520 5523 5525 5527 5529 5530 5530 5531 5531 5532 5531 5531 5529 5526 5523 5520 5515 5509 5503 5497 5490 5483 5476 5466 5457 5448 5438 5427 5416 5405 5392 5380 5367 5353 5340 5329 5319 5310 5302 5294
5513 5513 5513 5514 5516 5519 5521 5523 5525 5525 5526 5526 5526 5526 5525 5523 5521 5518 5514 5509 5504 5498 5491 5485 5477 5469 5460 5450 5440 5430 5419 5408 5397 5385 5372 5359 5346 5333 5322 5312 5304 5296 5289 5282
5513 5512 5512 5513 5514 5516 5518 5519 5520 5521 5521 5521 5520 5519 5517 5515 5512 5507 5502 5498 5490 5485 5477 5470 5462 5453 5444 5434 5423 5412 5401 5389 5377 5364 5351 5338 5325 5315 5305 5297 5289 5282 5275 5269
5511 5511 5511 5512 5512 5513 5514 5515 5515 5515 5515 5515 5513 5511 5508 5505 5501 5496 5490 5484 5478 5471 5464 5455 5447 5437 5428 5417 5406 5394 5383 5370 5356 5342 5329 5317 5307 5297 5289 5281 5273 5266 5260 5254
5508 5508 5508 5509 5509 5510 5510 5510 5510 5509 5509 5507 5504 5501 5498 5494 5489 5484 5478 5472 5465 5458 5449 5441 5432 5421 5410 5399 5388 5375 5362 5349 5335 5322 5310 5299 5289 5280 5271 5263 5256 5249 5243 5237
5505 5505 5504 5505 5505 5504 5504 5504 5504 5503 5500 5498 5495 5492 5488 5483 5478 5472 5466 5459 5451 5443 5435 5425 5415 5405 5394 5382 5369 5356 5343 5329 5316 5303 5292 5282 5271 5261 5252 5243 5235 5228 5223 5218
5500 5499 5499 5499 5498 5498 5497 5496 5495 5493 5491 5488 5484 5481 5476 5471 5465 5459 5452 5445 5437 5428 5419 5409 5398 5387 5375 5362 5349 5335 5321 5308 5296 5285 5274 5264 5253 5243 5232 5223 5214 5206 5200 5196